Location: Unspecified
(0.0000°N, 0.0000°E)
Time: 08:33:05
(UTC+00:00)

OAO 1 - Visible Passes

Search period start: 09 June 2023 00:00
Search period end: 19 June 2023 00:00
Orbit: 773 x 783 km, 35.0° (Epoch: 08 June)

Date Brightness Start Highest point End Pass type
(mag) Time Alt. Az. Time Alt. Az. Time Alt. Az.
13 Jun 6.7 19:59:43 10° SSW 20:00:30 14° SSW 20:00:30 14° SSW visible
14 Jun 5.5 19:22:58 10° SSW 19:26:52 28° SSE 19:26:52 28° SSE visible
15 Jun 5.6 18:46:17 10° SSW 18:50:38 24° SE 18:53:31 16° ESE visible
15 Jun 6.3 20:31:35 10° WSW 20:34:01 26° WSW 20:34:01 26° WSW visible
16 Jun 4.7 19:54:31 10° WSW 19:59:57 70° NW 20:01:00 55° NNE visible
17 Jun 4.5 19:17:29 10° SW 19:22:58 85° NNW 19:28:15 11° NE visible
17 Jun 7.2 21:06:24 10° WNW 21:08:47 14° NW 21:08:47 14° NW visible
18 Jun 4.5 18:40:30 10° SW 18:45:58 79° SE 18:51:25 10° NE visible
18 Jun 7.0 20:28:44 10° WNW 20:32:20 18° NW 20:35:56 10° N visible
